Location: Sternwarte Stuttgart
(48.7670°N, 9.1830°E)
Time: 20:12:41
(UTC+02:00)

Okean-O - Pass Details

Date: 24 January 2019
Orbit: 639 x 641 km, 98.2° (Epoch: 21 April)

Event Time Altitude Azimuth Distance (km) Brightness Sun altitude
Rises 06:02:37 0° 19° (NNE) 2,958 6.2 -19.7°
Reaches altitude 10° 06:04:56 10° 27° (NNE) 2,044 5.4 -19.3°
Maximum altitude 06:09:10 42° 98° (E) 917 3.9 -18.6°
Drops below altitude 10° 06:13:23 10° 170° (S) 2,029 5.4 -17.9°
Sets 06:15:40 0° 178° (S) 2,934 6.2 -17.5°
